Zurück zum Katalog

STARLINK-35143

AktivKommunikationVLEO
NORAD 65485·PAYLOAD·🇺🇸 United States

Gestartet Sep 3, 2025 von Cape Canaveral Space Force Station

Loading…

Nächste Überflüge (nächste 24 Stunden)

TLE

AktuellSource: CelesTrak SupGP

Epoche: Sep 14, 2026, 15:19 UTC

1 65485C 25195AD  26257.63868056 -.00007688  00000+0 -24718-3 0  2576
2 65485  53.1570  99.1157 0001141  97.5726 212.2246 15.31713035    15

Verfolge STARLINK-35143 in Echtzeit mit AllMySat

Download on the App Store